Corlu, Turkey

7:01 AM EEST on August 25, 2016 (GMT +0300)
Corlu Air Base

Weather History for LTBU - October, 2012

Change the Weather History Date:

Thursday, October 18, 2012

  Actual Average (LTBA) Record (LTBA)
Temperature  
Mean Temperature 68 °F -  
Max Temperature 75 °F 65 °F 77 °F (2012)
Min Temperature 59 °F 55 °F 41 °F (2011)
Cooling Degree Days 2    
Growing Degree Days 18 (Base 50)    
Moisture  
Dew Point 54 °F    
Average Humidity 68    
Maximum Humidity 88    
Minimum Humidity 38    
Precipitation  
Precipitation 0.00 in - - ()
Sea Level Pressure  
Sea Level Pressure 30.22 in    
Wind  
Wind Speed 15 mph ()    
Max Wind Speed 23 mph    
Max Gust Speed -    
Visibility 6.2 miles    
Events      
Averages and records for this station are not official NWS values.
T = Trace of Precipitation, MM = Missing Value Source: Averaged Metar Reports

Daily Weather History Graph

Daily Weather History Graph

Search for Another Location

Airport or City:

Trip Planner

Search our weather history database for the weather conditions in past years. The results will help you decide how hot, cold, wet, or windy it might be!

Date:

Astronomy

Oct. 18, 2012 Rise Set
Actual Time 7:23 AM EEST 6:22 PM EEST
Civil Twilight 6:55 AM EEST 6:50 PM EEST
Nautical Twilight 6:23 AM EEST 7:22 PM EEST
Astronomical Twilight 5:51 AM EEST 7:54 PM EEST
Moon 10:45 AM EEST (10/18) 8:35 PM EEST (10/18)
Length of Visible Light 11h 55m
Length of Day
10h 59m
Waxing Crescent, 12% of the Moon is Illuminated
Oct 18
Waxing Crescent
Oct 22
First Quarter
Oct 29
Full
Nov 7
Last Quarter
Nov 14
New

Hourly Weather History & Observations

Time (EEST) Temp. Dew Point Humidity Pressure Visibility Wind Dir Wind Speed Gust Speed Precip Events Conditions
12:20 AM 64.4 °F 53.6 °F 68% 30.18 in - NE 12.7 mph - N/A   Clear
12:50 AM 64.4 °F 53.6 °F 68% 30.18 in - NE 12.7 mph - N/A   Clear
1:20 AM 64.4 °F 55.4 °F 73% 30.18 in - NE 13.8 mph - N/A   Clear
1:50 AM 64.4 °F 57.2 °F 77% 30.18 in - NNE 15.0 mph - N/A   Clear
2:20 AM 64.4 °F 57.2 °F 77% 30.21 in - NNE 15.0 mph - N/A   Clear
3:20 AM 64.4 °F 55.4 °F 73% 30.21 in - NE 15.0 mph - N/A   Clear
3:50 AM 62.6 °F 53.6 °F 72% 30.21 in - NE 15.0 mph - N/A   Clear
4:20 AM 62.6 °F 53.6 °F 72% 30.21 in - NNE 15.0 mph - N/A   Clear
4:50 AM 62.6 °F 55.4 °F 77% 30.21 in - NE 13.8 mph - N/A   Clear
5:20 AM 62.6 °F 55.4 °F 77% 30.21 in - NE 13.8 mph - N/A   Clear
5:50 AM 60.8 °F 53.6 °F 77% 30.21 in - NNE 15.0 mph - N/A   Clear
6:20 AM 60.8 °F 50.0 °F 68% 30.21 in - NNE 15.0 mph - N/A   Clear
6:50 AM 60.8 °F 51.8 °F 72% 30.21 in - NNE 18.4 mph - N/A   Clear
7:20 AM 60.8 °F 53.6 °F 77% 30.21 in - NNE 18.4 mph - N/A   Clear
7:50 AM 60.8 °F 53.6 °F 77% 30.21 in - NE 16.1 mph - N/A   Clear
8:20 AM 60.8 °F 53.6 °F 77% 30.21 in - NNE 17.3 mph - N/A   Clear
8:50 AM 62.6 °F 55.4 °F 77% 30.21 in - NNE 20.7 mph - N/A   Clear
9:20 AM 64.4 °F 55.4 °F 73% 30.24 in - NNE 23.0 mph - N/A   Clear
9:50 AM 68.0 °F 53.6 °F 60% 30.24 in - NE 20.7 mph - N/A   Clear
10:20 AM 68.0 °F 53.6 °F 60% 30.24 in - NE 20.7 mph - N/A   Clear
10:50 AM 69.8 °F 53.6 °F 56% 30.24 in - NE 18.4 mph - N/A   Clear
11:20 AM 71.6 °F 53.6 °F 53% 30.24 in - NE 17.3 mph - N/A   Clear
11:50 AM 73.4 °F 51.8 °F 47% 30.24 in 6.2 mi NE 17.3 mph - N/A   Partly Cloudy
12:20 PM 73.4 °F 50.0 °F 44% 30.24 in 6.2 mi NE 18.4 mph - N/A   Partly Cloudy
12:50 PM 73.4 °F 51.8 °F 47% 30.24 in - ENE 18.4 mph - N/A   Clear
1:20 PM 75.2 °F 51.8 °F 44% 30.24 in - NE 17.3 mph - N/A   Clear
1:50 PM 75.2 °F 48.2 °F 38% 30.21 in 6.2 mi NE 17.3 mph - N/A   Partly Cloudy
2:20 PM 73.4 °F 50.0 °F 44% 30.21 in 6.2 mi NE 17.3 mph - N/A   Partly Cloudy
2:50 PM 73.4 °F 50.0 °F 44% 30.21 in 6.2 mi NNE 19.6 mph - N/A   Partly Cloudy
3:20 PM 73.4 °F 53.6 °F 50% 30.21 in 6.2 mi NNE 18.4 mph - N/A   Partly Cloudy
3:50 PM 73.4 °F 53.6 °F 50% 30.21 in 6.2 mi NE 17.3 mph - N/A   Partly Cloudy
4:20 PM 71.6 °F 55.4 °F 57% 30.21 in 6.2 mi NNE 19.6 mph - N/A   Partly Cloudy
4:50 PM 69.8 °F 55.4 °F 60% 30.18 in 6.2 mi NE 19.6 mph - N/A   Partly Cloudy
5:20 PM 68.0 °F 57.2 °F 68% 30.18 in 6.2 mi NE 21.9 mph - N/A   Partly Cloudy
5:50 PM 66.2 °F 57.2 °F 73% 30.21 in 6.2 mi NE 21.9 mph - N/A   Partly Cloudy
6:20 PM 66.2 °F 57.2 °F 73% 30.21 in 6.2 mi NE 23.0 mph - N/A   Partly Cloudy
6:50 PM 64.4 °F 57.2 °F 77% 30.21 in 6.2 mi NE 20.7 mph - N/A   Partly Cloudy
7:20 PM 62.6 °F 57.2 °F 82% 30.21 in 6.2 mi NE 18.4 mph - N/A   Partly Cloudy
7:50 PM 62.6 °F 57.2 °F 82% 30.21 in 6.2 mi NE 16.1 mph - N/A   Scattered Clouds
8:20 PM 62.6 °F 57.2 °F 82% 30.21 in 6.2 mi NE 17.3 mph - N/A   Scattered Clouds
8:50 PM 62.6 °F 57.2 °F 82% 30.24 in 6.2 mi NE 17.3 mph - N/A   Scattered Clouds
9:20 PM 62.6 °F 57.2 °F 82% 30.24 in 6.2 mi NE 17.3 mph - N/A   Scattered Clouds
9:50 PM 60.8 °F 57.2 °F 88% 30.24 in 6.2 mi NE 16.1 mph - N/A   Scattered Clouds
10:20 PM 60.8 °F 57.2 °F 88% 30.24 in 6.2 mi NE 16.1 mph - N/A   Scattered Clouds
10:50 PM 60.8 °F 55.4 °F 82% 30.24 in 6.2 mi NE 16.1 mph - N/A   Scattered Clouds
11:20 PM 60.8 °F 55.4 °F 82% 30.24 in 6.2 mi NE 13.8 mph - N/A   Scattered Clouds
11:50 PM 59.0 °F 55.4 °F 88% 30.24 in 6.2 mi NE 12.7 mph - N/A   Scattered Clouds